SCP
0 0 0 0 0 0 0 0 0 0 0 0 0 0 0 0 0 0 0 0 0 0 1 1 1 1 1 1 1 0 0 0 0 0 0 0 0 0 0 0 0 0 0
0 0 0 0 0 0 0 0 0 0 0 0 0 0 0 0 0 0 0 0 0 0 0 1 1 1 1 1 1 1 1 0 0 0 0 0 0 0 0 0 0 0 0
0 0 0 0 0 0 0 0 0 0 0 0 0 0 0 0 0 0 0 0 0 0 0 1 1 1 1 1 1 1 1 1 1 0 0 0 0 0 0 0 0 0 0
0 0 0 0 0 0 0 0 0 0 0 0 0 0 0 0 0 0 0 0 0 0 0 0 0 1 1 1 1 1 1 1 1 1 1 0 0 0 0 0 0 0 0
0 0 0 0 0 0 0 0 0 0 0 0 0 0 0 0 0 0 0 0 0 0 0 0 0 0 0 0 0 1 1 1 1 1 1 1 0 0 0 0 0 0 0
0 0 0 0 0 0 0 0 0 0 0 0 0 0 0 0 0 0 0 0 0 0 0 0 0 0 0 0 0 0 1 1 1 1 1 1 1 1 0 0 0 0 0
0 0 0 0 0 0 0 0 0 0 0 0 0 0 0 0 0 0 0 0 0 0 0 0 0 0 0 0 0 0 0 1 1 1 1 1 1 1 1 0 0 0 0
0 0 0 0 0 0 0 0 0 0 0 0 0 0 0 0 0 0 0 0 0 0 0 0 0 0 0 0 0 0 0 1 1 1 1 1 1 1 1 1 1 0 0
0 0 0 0 0 0 0 0 0 0 0 0 0 0 0 0 0 0 0 0 0 0 0 0 0 0 0 0 0 0 0 1 1 1 1 1 1 1 1 1 1 0 0
0 0 0 0 0 0 0 0 0 0 0 0 0 0 0 0 0 0 0 0 0 0 0 0 0 0 0 0 0 0 0 0 0 1 1 1 1 1 1 1 1 1 0
0 0 0 0 0 0 0 0 0 0 0 0 0 0 0 0 0 0 0 0 0 0 0 0 0 0 0 0 0 0 0 0 0 0 0 1 1 1 1 1 1 1 1
0 0 0 0 0 0 0 0 0 0 0 0 0 0 0 0 0 0 0 0 0 0 0 0 0 0 0 0 0 0 0 0 0 0 0 0 1 1 1 1 1 1 1
0 0 0 0 0 0 0 0 0 0 0 0 0 0 0 0 0 0 0 0 0 0 0 0 0 0 0 0 0 0 0 0 0 0 0 0 0 0 1 1 1 1 1
0 0 0 0 0 0 0 0 0 0 0 0 0 0 0 0 0 0 0 0 0 0 0 0 0 0 0 0 0 0 0 0 0 0 0 0 0 0 0 0 1 1 0
0 0 0 0 0 0 0 0 0 0 0 0 0 0 0 0 0 0 0 0 0 0 0 0 0 0 0 0 0 0 0 0 0 0 0 0 0 0 0 0 0 0 0
0 0 0 0 0 0 0 0 0 0 0 0 0 0 0 0 0 0 0 0 0 0 0 0 0 0 0 0 0 0 0 0 0 0 0 0 0 0 0 0 0 0 0
0 0 0 0 0 0 0 0 0 0 0 0 0 0 0 0 0 0 0 0 0 0 0 0 0 0 0 0 0 0 0 0 0 0 0 0 0 0 0 0 0 0 0
0 0 0 0 0 0 0 0 0 0 0 0 0 0 0 0 0 0 0 0 0 0 0 0 0 0 0 0 0 0 0 0 0 0 0 0 0 0 0 0 0 0 0
0 0 0 0 0 0 0 0 0 0 0 0 0 0 0 0 0 0 0 0 0 0 0 0 0 0 0 0 0 0 0 0 0 0 0 0 0 0 0 0 0 0 0
0 0 0 0 0 0 0 0 0 0 0 0 0 0 0 0 0 0 0 0 0 0 0 0 0 0 0 0 0 0 0 0 0 0 0 0 0 0 0 0 0 0 0
0 0 0 0 0 0 0 0 0 0 0 0 0 0 0 0 0 0 0 0 0 0 0 0 0 0 0 0 0 0 0 0 0 0 0 0 0 0 0 0 0 0 0
0 0 0 0 0 0 0 0 0 0 0 0 0 0 0 0 0 0 0 0 0 0 0 0 0 0 0 0 0 0 0 0 0 0 0 0 0 0 0 0 0 0 0
0 0 0 0 0 0 0 0 0 0 0 0 0 0 0 0 0 0 0 0 0 0 0 0 0 0 0 0 0 0 0 0 0 0 0 0 0 0 0 0 0 0 0
0 0 0 0 0 0 0 0 0 0 0 0 0 0 0 0 0 0 0 0 0 0 0 0 0 0 0 0 0 0 0 0 0 0 0 0 0 0 0 0 0 0 0
0 0 0 0 0 0 0 0 0 0 0 0 0 0 0 0 0 0 0 0 0 0 0 0 0 0 0 0 0 0 0 0 0 0 0 0 0 0 0 0 0 0 0
0 0 0 0 0 0 0 0 0 0 0 0 0 0 0 0 0 0 0 0 0 0 0 0 0 0 0 0 0 0 0 0 0 0 0 0 0 0 0 0 0 0 0
Wind_Speed
3 2 1 1 1 1 1 1 2 2 2 2 2 3 3 3 3 3 2 9 13 16 17 18 18 18 18 18 18 18 17 17 16 14 14 14 14 14 14 13 13 12 11
3 3 2 1 1 1 1 1 2 1 1 1 2 3 3 3 3 3 3 6 13 15 16 17 18 19 19 19 19 18 18 18 17 16 15 15 15 15 15 14 14 13 12
3 3 2 1 1 1 1 0 0 0 0 1 2 2 2 3 3 4 4 4 6 13 16 17 18 18 20 20 20 20 19 18 17 17 17 16 15 15 15 14 14 13 13
4 3 3 2 1 1 1 1 1 1 1 1 2 2 2 2 4 4 4 5 5 6 11 17 18 18 20 21 21 21 20 19 18 19 18 18 17 16 16 15 15 14 13
4 3 3 2 2 2 2 1 1 1 1 2 2 2 2 3 4 5 5 5 6 6 6 11 17 18 21 22 21 22 21 21 20 20 20 20 19 18 17 16 16 15 15
4 4 3 2 3 2 2 1 1 1 0 1 3 3 3 3 3 3 4 4 4 6 6 7 7 11 19 20 20 21 22 22 21 22 22 22 21 19 18 18 17 17 16
3 3 2 3 2 2 1 1 1 1 1 1 2 4 4 3 2 2 2 2 3 4 4 5 5 5 6 15 19 20 22 23 23 23 23 22 22 21 20 20 18 18 17
3 3 3 2 2 2 3 2 2 1 2 1 1 1 4 5 4 3 2 1 2 2 3 5 5 6 5 4 8 17 19 21 23 23 23 22 22 21 21 21 20 19 18
2 2 3 3 3 3 1 1 1 2 0 1 1 2 1 2 4 4 3 2 3 2 3 3 4 5 7 5 5 11 17 17 20 22 22 22 22 22 22 22 21 21 20
0 1 2 3 3 2 2 1 1 1 1 1 2 0 2 3 1 3 4 3 4 3 4 4 3 4 5 5 7 10 15 16 18 20 21 22 23 23 23 23 23 23 21
2 2 3 3 3 2 1 1 1 0 1 1 1 1 1 0 1 2 4 4 4 3 3 4 3 3 4 4 5 9 13 14 16 18 19 21 22 23 24 25 26 25 24
2 3 3 3 2 1 1 0 0 1 1 1 1 1 1 1 1 1 3 3 4 4 4 3 3 3 3 3 6 10 12 13 14 16 18 19 21 22 23 25 26 26 26
1 1 2 2 1 0 1 0 0 1 1 2 2 2 2 3 3 2 2 3 3 4 3 3 3 3 3 2 4 8 9 11 13 14 15 17 19 20 21 23 25 26 26
1 1 1 1 0 1 1 0 0 1 1 2 3 3 2 3 3 3 3 2 3 3 3 4 3 3 3 2 4 6 5 9 10 12 13 14 16 18 19 20 22 23 23
2 2 1 0 1 1 1 1 1 2 2 2 3 3 3 3 3 3 3 3 3 3 4 4 3 3 3 3 5 3 4 7 9 10 12 13 14 16 17 18 20 21 21
2 2 1 1 2 2 2 2 2 3 3 3 3 3 3 3 3 3 3 2 3 4 4 4 4 4 4 4 5 4 5 8 9 10 11 13 14 15 16 17 19 20 21
2 2 2 2 3 3 3 2 3 3 3 4 3 3 4 4 3 3 3 2 3 3 4 4 3 3 4 5 5 4 5 5 5 10 12 13 14 15 15 16 17 19 20
3 3 3 3 4 4 3 3 4 4 4 4 5 4 5 4 4 3 3 4 3 4 4 5 4 3 4 5 5 5 5 5 4 8 12 13 14 15 15 16 17 18 19
4 4 3 4 4 4 4 5 5 5 4 5 5 5 5 4 5 4 4 4 4 4 3 4 4 3 3 3 4 4 4 4 4 6 9 11 13 14 15 15 16 18 19
4 4 4 5 5 5 5 5 4 4 4 4 5 5 5 5 6 6 5 5 5 4 4 3 4 3 3 4 2 3 4 3 4 4 5 5 8 11 13 14 16 18 18
5 4 4 4 4 4 4 4 4 4 4 5 5 5 6 8 10 7 6 5 5 4 3 3 4 3 3 3 3 3 3 4 4 3 3 3 3 4 6 10 13 16 17
4 3 4 4 4 4 5 7 6 5 5 5 6 6 7 9 10 10 11 10 8 6 6 5 4 5 6 5 4 3 3 2 4 2 1 3 2 4 4 5 9 12 15
4 4 4 5 5 7 9 10 10 6 6 6 6 6 6 7 8 6 8 10 9 10 10 7 7 7 6 6 4 4 4 4 4 3 1 4 3 4 4 5 9 12 13
4 4 5 6 6 8 10 10 10 6 6 6 7 7 7 8 8 7 7 7 7 7 8 6 7 8 8 7 7 6 6 5 4 3 3 3 3 3 3 3 7 11 12
4 5 5 6 6 8 10 11 9 4 5 7 7 7 7 7 10 10 6 7 7 7 9 11 10 10 12 12 9 4 4 3 4 4 3 3 3 3 2 3 4 7 10
5 5 6 6 7 8 10 11 9 4 5 6 6 6 9 9 9 9 5 6 7 8 6 7 7 7 7 8 10 7 6 5 4 4 4 4 3 1 2 2 1 2 4
Wind_Direction
134 136 126 124 139 161 180 178 196 214 227 244 250 235 227 216 219 215 233 225 213 207 203 199 200 199 196 194 194 193 192 192 189 187 185 184 181 179 177 175 173 170 168
136 128 113 105 123 198 190 189 200 204 225 234 260 251 240 226 216 216 222 227 222 215 211 207 206 205 202 201 200 199 198 196 194 192 191 190 187 185 185 183 181 178 176
126 120 116 117 153 198 170 155 113 81 291 288 277 271 255 242 222 223 223 223 228 224 219 215 213 210 208 206 206 205 203 201 197 196 195 194 191 190 190 189 187 185 182
127 122 124 119 115 89 92 107 76 57 356 316 290 282 275 268 250 237 226 225 224 227 227 225 221 217 215 213 211 210 208 206 203 200 199 198 197 195 194 193 192 190 188
128 125 120 109 90 75 56 52 71 91 350 315 292 281 278 267 258 254 242 233 225 222 223 231 229 225 223 221 219 215 212 210 208 205 204 203 202 200 198 197 195 193 193
125 116 109 94 89 80 52 37 40 21 308 302 311 316 295 278 270 255 248 241 231 228 224 229 230 234 231 228 225 221 218 215 212 210 209 208 207 204 201 200 199 198 197
117 112 110 100 92 86 73 47 44 10 343 3 17 336 320 307 292 271 262 259 254 246 232 227 223 224 234 233 230 226 223 220 216 215 213 211 210 207 204 203 202 201 200
121 128 128 124 110 89 55 40 55 38 341 24 75 12 341 336 333 327 322 302 291 277 254 242 228 223 228 226 229 228 227 226 222 219 216 214 212 210 208 206 205 204 203
136 141 149 138 124 115 102 62 84 107 347 328 106 140 115 290 312 322 332 342 328 303 280 268 249 236 230 223 224 230 231 229 227 226 222 218 215 212 210 209 208 207 206
62 129 136 131 125 119 112 84 104 124 127 310 325 231 188 194 232 311 320 327 326 315 303 292 275 258 243 229 226 227 231 230 230 229 228 224 219 216 213 211 212 211 210
36 74 104 114 118 117 118 96 69 78 162 191 233 278 309 281 184 195 293 318 325 312 303 293 288 277 262 244 234 231 230 230 229 230 230 228 223 220 216 214 215 215 214
26 54 89 96 109 121 153 212 250 275 248 231 227 220 210 229 248 217 255 289 298 296 298 291 290 282 274 259 251 245 234 230 230 231 232 230 226 223 220 218 219 219 218
40 44 80 96 106 208 230 199 263 290 277 268 256 243 226 220 212 204 222 266 282 290 299 295 282 289 285 271 265 258 245 236 231 231 234 234 230 227 224 222 222 221 220
174 159 117 111 71 299 299 254 264 273 267 273 276 266 250 249 226 210 210 230 289 298 297 284 292 278 281 277 268 269 259 244 236 234 234 235 232 228 225 223 221 221 220
182 167 159 196 289 288 278 266 258 270 277 270 273 274 263 259 251 237 219 199 208 270 283 275 282 288 286 275 273 270 262 254 246 241 238 236 234 230 225 221 219 218 217
185 187 224 252 269 274 270 258 259 263 267 273 264 271 272 265 268 259 245 230 205 213 255 264 262 275 288 290 278 269 263 264 257 249 243 240 238 234 228 224 220 217 215
202 212 232 242 252 259 262 254 257 261 262 272 277 270 272 269 267 270 264 253 240 215 249 272 264 276 280 288 294 283 271 261 257 251 246 243 240 236 232 228 222 217 214
213 220 228 237 249 251 248 243 255 261 253 261 267 269 272 277 274 269 263 258 252 237 231 265 278 281 275 277 278 281 277 269 258 257 248 245 241 238 234 229 224 218 215
221 230 230 237 247 250 249 248 244 250 250 252 255 255 262 267 270 268 265 260 257 262 235 243 266 268 274 282 293 290 286 283 276 266 256 248 243 239 235 230 225 219 215
220 234 237 237 240 245 248 251 246 242 248 253 253 253 257 255 255 259 263 257 255 259 257 252 261 268 270 277 280 286 297 290 285 283 273 263 254 246 240 233 226 218 214
227 229 236 246 250 248 242 234 234 239 243 256 263 263 264 267 264 260 261 252 248 245 250 252 261 270 272 278 270 265 273 284 283 262 280 277 263 252 242 237 230 221 212
231 231 237 243 251 250 244 233 231 239 244 250 260 267 273 274 274 273 274 268 251 238 237 241 249 250 257 254 257 258 264 281 289 278 266 279 265 258 246 233 226 220 214
224 232 241 243 249 254 256 254 248 233 237 244 251 262 275 279 281 273 277 281 276 262 242 231 238 244 246 241 242 257 247 238 246 258 258 274 271 268 260 241 224 217 213
222 232 241 245 249 257 256 254 252 237 237 246 248 250 258 271 275 266 266 270 266 265 257 242 232 242 244 240 229 235 242 250 259 258 216 254 266 264 273 256 230 219 213
232 237 242 246 250 260 260 256 247 227 239 252 254 255 254 263 272 273 264 263 270 273 270 259 249 252 256 255 243 234 238 237 262 264 217 222 248 263 262 256 246 223 211
233 243 251 249 247 255 261 259 243 214 237 253 260 260 259 260 268 273 254 250 262 267 271 281 278 278 270 266 255 227 219 221 233 258 230 204 222 228 275 268 248 228 212